Location: W�rzburg
(49.7529°N, 9.8822°E)
Time: 07:39:00
(UTC+01:00)

ISS - Pass Details

Date: 15 November 2017
Orbit: 402 x 407 km, 51.6° (Epoch: 21 November)

Event Time Altitude Azimuth Distance (km) Brightness Sun altitude
Exits shadow 04:55:21 25° 122° (ESE) 851 -1.7 -25.2°
Drops below altitude 10° 04:56:52 10° 118° (ESE) 1,453 -0.2 -25.0°
Sets 04:58:57 0° 116° (ESE) 2,310 1.0 -24.6°
